Wetbulb
65.63 70.12 74.53 74.17 74.33 73.81 74.01 74.02 73.45 73.60 73.66 73.49 73.34 73.21 72.97 72.57 72.08 71.54 70.73 69.31 68.82 68.78 69.19 70.02 71.12 72.38 72.10 72.61 72.11 72.26 71.62 72.16 71.79 71.68 72.39 71.53 70.30 69.36 69.71 70.61 71.07 70.10 70.03
70.49 71.75 73.53 74.57 74.14 74.36 74.10 73.76 73.61 73.80 73.57 73.11 72.85 72.52 72.11 71.56 71.20 70.87 70.22 69.23 69.51 69.19 68.74 69.51 70.22 71.20 71.61 70.91 71.85 71.45 71.01 71.16 71.22 71.26 70.81 70.29 70.21 69.30 69.12 69.35 70.31 69.74 70.84
67.23 70.36 73.56 74.69 74.43 74.51 74.27 74.10 73.77 73.41 72.82 72.30 72.14 71.81 71.18 70.97 70.99 70.75 69.86 69.47 69.52 69.74 70.68 71.95 71.79 71.53 71.36 70.62 70.75 70.77 70.56 70.62 70.61 70.88 70.62 67.85 67.85 69.62 68.53 68.70 68.78 68.80 69.92
65.46 66.76 70.79 74.16 74.58 74.35 74.06 73.94 73.93 73.35 73.07 72.25 71.46 71.25 70.92 71.05 71.30 71.15 70.14 69.72 70.54 70.40 71.45 72.09 71.65 71.16 71.20 70.11 69.26 69.28 70.05 69.99 70.16 70.39 69.08 69.01 68.97 70.79 69.01 68.64 68.24 68.24 68.48
61.23 63.23 68.53 71.08 71.37 71.90 72.98 73.58 73.84 73.72 73.58 73.33 72.71 71.74 71.43 71.54 71.62 71.72 71.24 70.30 70.99 71.86 71.99 71.69 71.58 71.04 70.65 70.47 69.04 68.33 69.20 70.07 70.14 68.97 66.62 65.97 68.21 70.80 69.45 68.50 67.82 67.60 68.16
55.79 59.06 65.38 68.24 68.74 69.03 69.42 69.86 70.62 71.85 72.99 73.17 73.35 73.16 72.63 72.40 72.32 72.31 72.84 72.25 71.68 71.84 71.74 71.94 72.27 71.62 71.07 70.69 70.63 70.43 70.19 70.13 69.65 66.88 64.90 64.41 68.32 71.50 70.30 69.03 68.88 68.60 67.64
53.99 56.45 60.51 66.19 65.41 64.99 65.45 65.96 66.52 67.52 68.67 69.22 71.80 72.90 72.71 72.88 72.91 73.07 73.09 72.94 72.66 72.45 71.77 71.79 72.11 72.35 71.52 70.76 70.34 70.57 71.53 70.53 68.57 66.26 64.67 66.07 68.87 72.11 70.71 69.29 68.17 67.60 67.38
53.67 54.99 56.36 63.18 65.41 64.39 63.76 62.96 62.74 63.05 63.58 64.33 65.77 68.10 71.07 72.18 72.63 72.69 72.93 72.89 72.93 72.53 72.41 72.05 71.83 72.35 72.48 71.36 70.41 70.26 70.73 69.76 67.76 65.35 64.93 65.20 69.72 71.96 71.13 69.79 68.55 67.91 68.22
54.28 54.24 53.75 54.36 57.78 62.04 63.46 63.63 63.07 61.66 62.00 62.51 63.35 64.57 65.82 66.53 68.36 71.23 72.53 72.89 72.89 72.89 72.85 73.14 72.85 72.70 72.87 72.24 71.59 70.55 69.63 69.03 66.77 65.08 65.09 63.92 69.36 71.64 71.50 70.40 69.49 68.80 68.56
53.44 53.35 53.18 53.34 53.71 53.25 53.40 62.10 63.02 63.55 62.67 63.81 63.84 63.44 63.23 64.40 64.61 67.22 69.71 70.98 72.13 72.09 72.23 72.35 72.65 72.73 72.59 72.30 71.72 70.51 68.74 67.85 66.80 65.80 65.39 64.93 67.73 69.67 71.88 70.64 69.98 69.57 69.05
53.66 52.38 52.64 52.49 52.48 52.52 54.34 56.22 56.94 58.66 60.81 60.30 58.86 60.15 59.35 55.66 56.25 60.12 65.57 68.55 70.05 70.82 71.63 71.87 71.75 71.27 70.55 69.89 70.31 69.80 68.08 66.75 65.90 66.46 66.59 67.39 68.80 69.69 72.41 71.39 70.57 69.95 69.71
49.97 51.38 51.47 51.50 52.02 52.21 55.87 52.40 51.69 53.80 52.52 52.53 52.65 52.44 52.89 52.89 53.57 57.58 57.76 62.38 65.75 67.92 69.57 70.92 71.22 70.63 69.19 68.67 68.73 68.25 68.49 66.95 65.65 65.82 65.83 67.61 69.36 70.06 72.47 72.05 71.23 70.82 70.75
49.86 50.81 51.68 51.40 51.58 51.35 51.71 51.84 50.94 51.42 51.15 51.24 52.13 52.29 52.05 52.96 52.57 53.15 52.72 53.61 56.07 61.71 66.87 68.64 68.51 68.75 67.94 67.91 68.11 67.70 67.75 67.06 66.83 65.54 65.32 66.61 68.84 70.16 72.15 72.16 71.34 70.89 70.57
49.86 50.11 51.12 51.06 50.79 51.08 51.32 51.39 51.34 51.41 51.96 51.17 51.93 53.06 51.56 51.16 51.26 51.33 51.66 52.22 52.36 54.07 55.52 62.22 65.98 66.82 67.15 67.46 66.94 66.09 66.54 67.55 67.55 66.71 64.22 64.44 67.05 69.88 72.29 72.14 71.44 70.96 70.56
48.83 49.13 50.02 50.42 50.26 51.60 51.58 51.23 51.10 50.70 50.90 51.13 51.99 52.86 52.36 51.28 50.87 51.63 51.55 51.99 51.81 52.24 52.29 53.69 58.54 62.53 65.12 65.84 66.19 65.58 65.41 66.98 66.86 67.07 65.60 63.34 64.94 68.23 70.71 71.75 71.28 70.65 70.23
48.92 48.77 50.10 50.96 51.22 51.77 51.05 51.14 51.13 51.07 51.28 51.64 51.61 52.03 52.78 51.86 51.38 52.04 51.78 52.06 52.07 52.43 52.97 52.51 52.44 54.77 60.63 64.16 64.58 65.03 65.11 65.36 66.03 66.12 67.42 66.94 65.53 66.93 69.12 70.38 71.26 71.19 70.93
47.67 49.22 50.61 51.84 52.21 50.90 51.12 51.50 51.50 51.77 52.81 51.52 51.69 52.60 53.46 54.07 53.21 52.58 52.05 51.64 52.03 52.55 52.73 53.04 53.75 53.54 53.07 55.21 59.02 63.22 64.03 64.29 64.68 64.77 65.21 65.29 66.30 64.30 65.55 68.51 69.93 70.27 70.35
47.32 48.71 50.68 53.17 51.37 50.61 50.77 51.21 51.71 52.21 52.15 52.24 52.76 53.29 54.33 54.82 54.70 53.95 52.98 52.66 52.97 52.70 53.06 53.06 53.06 52.95 52.61 52.57 53.51 56.50 60.23 62.50 63.47 63.93 64.92 64.98 65.36 66.39 65.68 66.27 67.64 69.06 69.64
46.91 48.51 49.69 50.54 50.28 50.12 50.45 51.10 51.36 51.47 51.24 51.87 52.04 52.25 52.64 53.32 53.55 53.33 54.21 54.26 55.46 55.02 53.83 53.57 53.69 52.55 52.10 52.34 52.93 52.81 53.60 56.23 59.83 63.04 62.89 63.68 64.05 64.76 65.19 64.82 63.87 64.81 66.39
47.17 47.95 48.97 49.71 50.04 49.94 50.10 50.18 50.16 50.07 50.32 51.32 50.39 50.52 51.18 51.65 52.51 51.95 51.90 52.30 53.01 53.58 54.41 54.86 53.91 54.54 52.59 52.41 55.12 54.45 52.89 53.32 53.70 54.10 56.72 60.68 62.67 63.68 63.97 64.44 64.70 63.31 63.04
47.17 47.04 48.16 48.44 48.93 49.40 48.43 47.90 47.83 47.31 48.73 49.95 50.52 52.18 52.24 52.21 52.40 50.57 49.96 50.51 51.03 50.98 52.04 52.66 53.08 54.19 54.12 54.85 52.87 53.17 52.99 53.91 53.75 54.02 54.11 54.20 55.84 58.08 60.03 62.71 62.97 63.48 63.71
46.19 46.31 47.49 48.48 48.81 49.11 48.68 48.52 48.82 48.36 48.49 49.82 49.43 50.06 50.79 51.59 51.32 50.87 50.10 50.21 50.22 49.57 49.83 49.85 50.36 50.44 51.99 52.41 51.45 51.04 48.77 50.78 53.20 54.24 54.12 54.68 54.11 57.94 58.18 59.59 61.51 61.92 62.31
44.82 45.25 47.15 48.23 48.64 48.67 48.69 48.91 48.44 47.97 47.60 47.23 47.21 47.48 48.73 51.08 50.96 50.86 49.54 49.63 49.30 48.93 48.34 48.72 49.30 48.95 48.52 49.77 51.35 51.03 49.28 48.68 49.91 52.68 52.51 53.10 53.01 53.43 55.33 55.72 57.07 58.25 57.81
44.44 45.54 46.99 48.17 48.50 48.44 48.20 47.05 45.67 45.14 44.60 45.80 46.12 46.61 47.36 48.70 48.00 48.21 47.70 47.28 48.54 48.37 48.09 48.38 48.80 49.32 49.65 48.57 50.88 52.18 51.44 50.13 47.30 45.26 49.30 49.78 50.29 51.75 53.17 53.17 54.61 54.87 53.46
45.60 45.04 45.88 46.97 47.71 47.56 47.13 46.41 45.21 44.40 44.69 44.96 43.78 43.62 43.67 45.27 46.38 45.48 45.63 44.35 45.83 47.88 47.78 47.90 48.42 48.87 49.68 49.17 49.03 48.48 48.59 48.39 48.10 46.54 44.07 45.84 48.50 49.20 50.94 51.73 50.86 49.92 49.17
44.87 45.23 45.35 46.05 46.77 46.70 46.28 45.62 44.75 43.54 42.94 41.54 40.93 40.65 41.24 42.22 43.41 43.40 44.49 43.39 43.17 42.76 42.89 45.11 47.35 47.50 47.49 48.40 47.56 46.89 46.03 45.65 45.07 44.71 44.58 45.53 46.09 47.29 48.37 48.44 47.66 47.27 46.14
MSLP
1017.21 1017.14 1017.03 1017.00 1017.17 1017.34 1017.40 1017.47 1017.58 1017.66 1017.72 1017.68 1017.67 1017.69 1017.74 1017.77 1017.76 1017.82 1017.86 1017.85 1017.81 1017.74 1017.70 1017.64 1017.59 1017.50 1017.46 1017.48 1017.52 1017.60 1017.57 1017.52 1017.42 1017.44 1017.44 1017.50 1017.59 1017.68 1017.74 1017.61 1017.49 1017.55 1017.54
1017.20 1017.18 1017.20 1017.25 1017.32 1017.46 1017.59 1017.61 1017.72 1017.80 1017.82 1017.79 1017.72 1017.73 1017.75 1017.78 1017.84 1017.86 1017.89 1017.89 1017.86 1017.77 1017.71 1017.68 1017.64 1017.62 1017.58 1017.61 1017.68 1017.72 1017.72 1017.74 1017.73 1017.67 1017.64 1017.64 1017.60 1017.57 1017.72 1017.85 1017.76 1017.68 1017.70
1017.33 1017.41 1017.25 1017.37 1017.53 1017.61 1017.70 1017.72 1017.80 1017.87 1017.89 1017.89 1017.79 1017.75 1017.76 1017.79 1017.83 1017.86 1017.90 1017.86 1017.82 1017.79 1017.73 1017.67 1017.68 1017.73 1017.72 1017.74 1017.73 1017.77 1017.83 1017.84 1017.85 1017.85 1017.82 1017.87 1017.88 1017.78 1017.70 1017.76 1017.83 1017.83 1017.82
1017.77 1017.95 1017.76 1017.62 1017.63 1017.73 1017.77 1017.82 1017.85 1017.87 1017.89 1017.93 1017.87 1017.81 1017.80 1017.77 1017.76 1017.79 1017.84 1017.86 1017.85 1017.82 1017.77 1017.71 1017.72 1017.82 1017.85 1017.88 1017.88 1017.82 1017.81 1017.84 1017.83 1017.83 1017.92 1017.95 1017.89 1017.74 1017.73 1017.73 1017.83 1017.85 1017.87
1018.25 1018.32 1018.11 1017.97 1017.95 1017.97 1017.95 1017.97 1017.92 1017.87 1017.83 1017.87 1017.91 1017.88 1017.85 1017.78 1017.74 1017.72 1017.75 1017.82 1017.85 1017.86 1017.85 1017.81 1017.79 1017.81 1017.85 1017.85 1017.88 1017.87 1017.81 1017.81 1017.77 1017.70 1017.76 1017.80 1017.53 1017.53 1017.63 1017.68 1017.73 1017.85 1017.94
1018.56 1018.48 1018.37 1018.29 1018.26 1018.27 1018.27 1018.22 1018.18 1018.11 1017.97 1017.88 1017.80 1017.77 1017.79 1017.72 1017.67 1017.62 1017.61 1017.64 1017.68 1017.72 1017.75 1017.73 1017.70 1017.71 1017.75 1017.77 1017.77 1017.79 1017.79 1017.74 1017.73 1017.68 1017.63 1017.58 1017.35 1017.18 1017.37 1017.57 1017.66 1017.78 1017.86
1018.75 1018.65 1018.54 1018.48 1018.45 1018.46 1018.43 1018.45 1018.42 1018.31 1018.24 1018.16 1018.01 1017.81 1017.71 1017.63 1017.57 1017.53 1017.49 1017.47 1017.44 1017.43 1017.46 1017.48 1017.49 1017.52 1017.54 1017.59 1017.63 1017.63 1017.63 1017.64 1017.72 1017.70 1017.58 1017.53 1017.31 1017.07 1017.23 1017.41 1017.60 1017.75 1017.82
1018.86 1018.86 1018.89 1018.78 1018.75 1018.76 1018.66 1018.56 1018.49 1018.42 1018.31 1018.18 1018.14 1017.98 1017.81 1017.68 1017.54 1017.41 1017.28 1017.23 1017.18 1017.17 1017.16 1017.16 1017.15 1017.13 1017.18 1017.29 1017.35 1017.37 1017.42 1017.53 1017.54 1017.57 1017.43 1017.41 1017.09 1016.83 1016.95 1017.16 1017.37 1017.55 1017.66
1019.17 1019.22 1019.29 1019.23 1019.17 1019.09 1018.91 1018.72 1018.54 1018.43 1018.31 1018.19 1018.06 1017.91 1017.83 1017.71 1017.53 1017.31 1017.11 1016.98 1016.89 1016.84 1016.82 1016.82 1016.85 1016.82 1016.82 1016.88 1016.95 1017.04 1017.14 1017.20 1017.33 1017.37 1017.22 1017.13 1017.04 1016.62 1016.59 1016.83 1017.05 1017.29 1017.48
1019.52 1019.65 1019.64 1019.53 1019.44 1019.28 1019.11 1018.97 1018.67 1018.55 1018.30 1018.13 1017.98 1017.85 1017.75 1017.63 1017.42 1017.17 1016.93 1016.86 1016.72 1016.65 1016.59 1016.56 1016.52 1016.47 1016.52 1016.58 1016.64 1016.66 1016.76 1016.85 1016.97 1017.06 1016.97 1016.75 1016.66 1016.54 1016.38 1016.55 1016.71 1016.90 1017.14
1019.94 1020.05 1019.95 1019.91 1019.73 1019.54 1019.20 1019.15 1018.98 1018.78 1018.52 1018.36 1018.23 1018.08 1017.91 1017.82 1017.61 1017.29 1016.99 1016.70 1016.59 1016.45 1016.30 1016.22 1016.17 1016.17 1016.15 1016.23 1016.27 1016.35 1016.44 1016.53 1016.60 1016.64 1016.59 1016.37 1016.18 1016.08 1015.94 1016.11 1016.28 1016.45 1016.69
1020.20 1020.19 1020.18 1020.15 1020.04 1019.83 1019.47 1019.51 1019.36 1019.07 1018.82 1018.67 1018.54 1018.36 1018.15 1017.94 1017.76 1017.47 1017.19 1016.89 1016.50 1016.14 1015.93 1015.80 1015.64 1015.65 1015.77 1015.87 1015.90 1015.94 1016.05 1016.08 1016.15 1016.12 1016.01 1015.81 1015.67 1015.61 1015.52 1015.62 1015.74 1015.91 1016.13
1020.22 1020.24 1020.26 1020.24 1020.18 1020.10 1019.90 1019.73 1019.65 1019.45 1019.20 1018.96 1018.77 1018.53 1018.34 1018.18 1017.98 1017.74 1017.55 1017.33 1016.97 1016.46 1016.03 1015.56 1015.48 1015.41 1015.40 1015.46 1015.46 1015.43 1015.40 1015.51 1015.44 1015.39 1015.22 1015.12 1015.11 1015.01 1014.98 1015.10 1015.28 1015.42 1015.60
1020.14 1020.25 1020.29 1020.26 1020.27 1020.20 1020.03 1019.93 1019.77 1019.64 1019.41 1019.25 1018.95 1018.63 1018.53 1018.44 1018.28 1018.07 1017.79 1017.54 1017.19 1016.87 1016.56 1016.04 1015.61 1015.23 1015.09 1015.02 1015.06 1015.04 1014.97 1014.90 1014.85 1014.70 1014.60 1014.53 1014.47 1014.41 1014.42 1014.55 1014.71 1014.91 1015.06
1020.22 1020.35 1020.41 1020.35 1020.38 1020.23 1020.08 1020.04 1019.86 1019.78 1019.57 1019.40 1019.05 1018.74 1018.53 1018.58 1018.46 1018.18 1017.92 1017.61 1017.30 1016.94 1016.72 1016.43 1015.97 1015.44 1015.02 1014.74 1014.65 1014.71 1014.68 1014.44 1014.36 1014.22 1014.13 1013.93 1013.90 1013.88 1013.87 1013.92 1014.07 1014.21 1014.37
1020.22 1020.36 1020.36 1020.33 1020.27 1020.18 1020.16 1020.10 1019.99 1019.83 1019.48 1019.23 1019.07 1018.76 1018.43 1018.42 1018.35 1018.09 1017.90 1017.61 1017.29 1016.91 1016.54 1016.33 1016.15 1015.84 1015.25 1014.75 1014.51 1014.19 1014.12 1014.16 1014.15 1014.09 1013.99 1013.77 1013.61 1013.59 1013.49 1013.58 1013.64 1013.65 1013.65
1020.15 1020.27 1020.33 1020.33 1020.17 1020.22 1020.25 1020.19 1020.11 1019.93 1019.49 1019.37 1019.26 1018.94 1018.62 1018.42 1018.30 1018.06 1017.84 1017.59 1017.20 1016.77 1016.46 1016.12 1015.78 1015.53 1015.35 1014.88 1014.54 1014.23 1013.89 1013.74 1013.69 1013.59 1013.51 1013.39 1013.33 1013.20 1013.19 1013.14 1013.12 1013.05 1013.04
1020.13 1020.27 1020.26 1020.24 1020.24 1020.22 1020.30 1020.32 1020.28 1020.15 1019.92 1019.78 1019.49 1019.24 1019.00 1018.83 1018.62 1018.21 1017.89 1017.64 1017.14 1016.70 1016.37 1016.15 1015.86 1015.55 1015.32 1015.07 1014.75 1014.29 1013.98 1013.71 1013.46 1013.29 1013.19 1013.14 1013.04 1012.91 1012.75 1012.72 1012.63 1012.61 1012.62
1020.11 1020.28 1020.26 1020.24 1020.31 1020.37 1020.32 1020.30 1020.29 1020.12 1020.11 1020.05 1019.75 1019.54 1019.41 1019.21 1018.97 1018.68 1018.36 1017.99 1017.42 1016.95 1016.58 1016.35 1015.89 1015.62 1015.32 1014.92 1014.54 1014.15 1013.94 1013.76 1013.56 1013.20 1013.17 1012.95 1012.78 1012.64 1012.48 1012.34 1012.24 1012.13 1012.09
1019.88 1020.12 1020.24 1020.35 1020.43 1020.43 1020.45 1020.44 1020.39 1020.35 1020.18 1020.05 1019.92 1019.80 1019.64 1019.49 1019.24 1019.03 1018.74 1018.43 1018.06 1017.60 1017.12 1016.71 1016.33 1015.72 1015.37 1015.10 1014.47 1014.12 1013.86 1013.54 1013.32 1013.15 1013.00 1012.69 1012.54 1012.36 1012.10 1011.91 1011.77 1011.78 1011.77
1019.71 1020.04 1020.27 1020.42 1020.54 1020.57 1020.60 1020.67 1020.67 1020.77 1020.42 1020.21 1020.01 1019.90 1019.69 1019.57 1019.31 1019.17 1019.05 1018.73 1018.45 1018.20 1017.86 1017.48 1016.95 1016.30 1015.53 1015.42 1014.89 1014.35 1013.72 1013.20 1012.92 1012.87 1012.97 1012.80 1012.65 1012.51 1012.05 1011.83 1011.61 1011.51 1011.41
1019.71 1020.01 1020.19 1020.34 1020.43 1020.51 1020.58 1020.63 1020.71 1020.64 1020.47 1020.33 1020.09 1019.91 1019.74 1019.63 1019.52 1019.26 1019.15 1018.85 1018.56 1018.38 1018.06 1017.87 1017.49 1017.05 1016.51 1016.30 1015.93 1015.23 1014.40 1013.62 1013.37 1013.02 1012.94 1012.99 1012.93 1012.59 1012.35 1012.06 1011.66 1011.57 1011.45
1019.78 1020.01 1020.15 1020.28 1020.37 1020.46 1020.57 1020.64 1020.66 1020.58 1020.54 1020.55 1020.32 1020.17 1019.91 1019.58 1019.71 1019.62 1019.45 1019.05 1018.83 1018.73 1018.58 1018.46 1018.20 1017.83 1017.34 1016.80 1016.42 1016.14 1015.26 1014.64 1014.37 1013.14 1013.11 1013.31 1013.28 1013.07 1013.02 1012.71 1012.38 1012.34 1012.30
1019.65 1019.88 1020.01 1020.17 1020.27 1020.40 1020.56 1020.73 1020.84 1020.88 1020.90 1020.68 1020.51 1020.34 1020.08 1019.68 1019.76 1019.88 1019.81 1019.55 1019.08 1018.99 1018.93 1018.80 1018.50 1018.16 1017.74 1017.15 1016.59 1016.26 1016.27 1016.18 1015.47 1014.55 1013.75 1013.64 1013.60 1013.42 1013.17 1012.95 1013.18 1013.13 1013.07
1019.43 1019.76 1019.86 1020.09 1020.23 1020.34 1020.49 1020.56 1020.71 1020.87 1020.76 1020.62 1020.58 1020.48 1020.30 1020.05 1019.95 1019.92 1019.81 1019.68 1019.46 1019.12 1019.14 1018.95 1018.68 1018.36 1018.06 1017.67 1017.28 1016.95 1016.55 1016.21 1015.98 1015.97 1015.09 1014.51 1014.03 1013.75 1013.51 1013.61 1013.81 1013.72 1013.78
1019.30 1019.56 1019.68 1019.92 1020.01 1020.12 1020.20 1020.28 1020.45 1020.64 1020.69 1020.70 1020.63 1020.66 1020.58 1020.37 1020.26 1020.07 1019.85 1019.84 1019.75 1019.61 1019.49 1019.24 1018.96 1018.72 1018.43 1018.10 1017.94 1017.70 1017.44 1017.08 1016.83 1016.74 1016.12 1015.65 1015.17 1014.41 1014.31 1014.56 1014.64 1014.65 1014.63
Wind_Speed
2 3 5 7 8 6 5 6 6 5 5 5 5 5 6 6 7 6 5 4 4 3 3 4 6 7 6 7 7 7 7 7 8 9 8 9 8 7 7 10 8 4 8
8 5 5 5 7 6 5 5 5 4 3 3 3 3 4 4 4 3 3 3 3 3 2 2 3 4 4 5 6 5 5 5 4 5 6 6 6 8 8 8 8 6 8
11 10 8 7 6 5 3 4 3 2 1 1 1 2 2 2 2 2 2 2 2 2 3 4 3 3 3 3 4 3 3 3 2 1 2 2 1 4 7 7 6 5 5
9 6 9 14 12 9 5 2 2 2 2 1 1 1 1 1 2 2 2 2 3 3 4 4 3 2 2 2 1 0 2 0 3 4 3 3 5 6 6 6 5 4 5
8 5 8 13 13 12 12 10 8 3 1 2 3 3 3 3 3 3 3 3 4 4 4 3 1 1 1 1 2 2 2 3 5 6 4 5 5 7 7 6 4 4 3
7 6 8 12 12 12 12 11 10 9 8 6 3 4 5 5 5 6 5 5 5 5 5 5 6 5 4 4 5 5 5 4 5 6 5 6 5 10 9 8 6 6 4
6 5 6 10 10 11 10 10 10 10 9 8 8 6 5 6 7 8 7 6 7 7 7 8 8 8 7 6 7 8 8 5 4 5 5 6 6 12 10 9 7 6 6
7 6 7 7 8 8 8 8 8 8 8 8 8 7 7 8 8 8 9 8 9 10 10 10 10 10 10 9 9 9 8 7 4 5 6 5 8 11 11 10 9 8 8
7 7 7 7 8 8 6 6 7 6 7 7 7 7 7 8 10 11 11 10 11 11 11 11 11 11 11 12 10 10 9 9 5 4 7 3 9 13 14 12 11 10 10
7 7 7 7 7 7 7 11 12 11 8 9 8 9 9 9 11 11 12 10 12 12 12 12 13 13 12 12 11 11 11 10 6 5 5 5 11 16 16 13 12 12 12
5 6 6 6 6 7 6 7 11 13 11 11 9 9 7 5 7 8 8 8 8 11 13 14 14 14 12 11 12 12 10 4 5 5 5 11 16 16 15 14 14 14 14
4 4 5 6 6 6 5 6 7 7 5 6 6 7 5 6 7 9 11 14 14 12 11 13 14 15 11 4 4 9 6 6 5 6 5 14 19 18 17 16 15 14 14
4 3 4 5 5 6 5 4 3 3 4 4 7 6 5 5 5 5 4 5 6 11 5 6 6 5 6 5 6 6 7 7 6 6 10 15 18 20 20 18 16 16 16
5 4 5 5 5 5 3 3 4 4 4 4 5 6 4 3 5 5 4 5 4 4 7 7 4 5 6 6 7 6 8 7 6 6 7 14 18 18 20 19 18 18 17
5 4 4 4 4 4 4 3 4 4 3 4 4 5 4 4 4 4 4 4 5 4 4 5 6 7 6 5 5 5 6 6 8 5 4 12 15 17 20 21 20 20 20
6 4 2 3 3 4 4 5 4 4 4 4 4 4 5 3 3 3 4 4 5 4 5 4 5 5 5 5 6 6 6 5 5 6 4 6 11 12 16 18 19 20 20
3 4 3 1 3 4 3 4 4 4 5 4 4 6 6 6 6 5 4 4 4 4 6 5 5 4 5 5 6 5 5 6 5 6 5 4 6 9 13 18 19 21 21
4 4 2 2 3 4 3 3 3 4 4 4 4 4 8 8 8 6 4 5 5 4 4 4 4 4 4 4 4 5 4 5 6 6 5 5 4 5 7 14 18 19 21
4 3 1 2 3 4 2 3 4 5 4 4 4 4 7 7 8 6 6 7 8 6 5 5 5 3 4 5 5 4 4 4 5 5 6 6 6 6 5 8 14 17 18
5 2 1 2 3 4 2 3 3 3 4 3 4 4 6 4 6 5 6 7 8 7 7 7 6 6 3 3 5 5 5 5 4 5 5 6 5 7 7 8 6 5 14
5 3 2 2 3 3 2 2 2 2 2 2 3 6 7 7 8 6 4 5 6 6 6 8 7 9 5 9 4 5 4 6 6 4 3 3 5 6 7 5 4 3 4
5 5 3 2 1 2 1 1 1 2 2 1 1 2 3 6 8 8 9 8 9 8 9 9 10 8 5 6 4 4 4 4 4 3 2 4 5 6 8 10 8 8 7
6 6 4 3 1 0 1 2 2 2 2 3 3 2 2 4 5 5 7 6 7 7 7 7 7 8 6 6 8 3 4 3 7 4 4 5 8 6 4 5 8 9 10
6 6 4 3 3 3 1 1 1 2 1 2 1 2 3 4 3 5 5 6 7 6 5 5 6 5 5 6 5 5 4 5 3 4 4 8 8 8 8 5 5 8 11
8 7 5 4 4 4 4 3 2 1 1 1 2 3 4 4 5 5 5 5 6 4 5 6 6 6 5 4 4 4 4 4 2 3 5 7 7 4 4 6 9 9 12
6 6 6 6 6 6 5 5 5 4 2 0 1 2 3 2 3 5 5 5 4 4 4 4 5 6 6 5 5 5 5 4 4 3 3 4 7 5 8 7 8 7 7
Wind_Direction
79 66 139 140 127 113 97 88 80 74 56 61 60 57 50 44 47 49 46 46 42 37 36 28 21 30 53 72 65 60 47 49 69 83 92 101 95 82 63 42 118 61 82
72 66 105 129 124 122 116 99 94 84 61 58 63 59 54 53 45 40 38 33 27 40 48 21 21 31 51 63 73 63 53 47 58 93 117 129 130 116 96 66 72 81 75
59 43 60 95 103 104 113 121 115 109 80 43 45 42 44 45 32 14 6 6 19 18 10 298 56 50 54 69 80 78 64 38 10 312 202 136 148 126 112 105 97 91 85
69 43 54 67 69 63 60 76 143 181 194 221 298 318 324 329 336 336 328 315 315 322 358 38 97 83 73 30 7 71 157 203 297 290 287 275 219 176 140 125 120 114 110
77 51 64 71 70 65 59 55 54 41 294 233 252 274 284 291 297 301 301 295 298 312 330 280 214 205 250 257 277 269 242 236 269 285 275 272 215 183 157 147 140 141 117
89 75 70 71 69 65 56 49 45 41 36 20 339 264 272 277 278 276 272 265 270 276 279 289 253 239 241 249 257 257 254 246 269 287 299 291 209 170 169 163 152 162 173
104 88 82 79 72 66 61 50 40 33 25 15 0 349 315 296 279 274 267 264 253 251 257 262 268 253 245 251 258 262 267 236 264 281 284 302 208 176 177 174 181 196 202
73 59 45 53 74 64 57 51 34 24 15 10 352 346 333 320 303 287 265 254 250 252 255 256 258 253 242 245 254 255 258 261 252 273 281 279 241 192 189 187 189 204 214
56 49 33 30 37 31 28 33 28 1 351 340 329 324 317 309 298 286 274 261 251 247 247 246 247 249 243 240 239 239 246 251 233 252 275 268 250 232 204 200 195 208 224
66 54 39 30 19 5 3 16 10 2 317 328 320 308 305 303 297 284 272 267 265 259 252 247 246 245 243 243 237 234 238 241 236 240 258 266 267 271 228 205 204 210 225
57 50 44 29 17 7 7 6 358 352 2 357 1 345 336 326 336 327 327 285 285 275 270 256 254 252 244 239 239 238 236 225 226 233 238 253 260 258 227 206 210 216 225
67 50 44 26 13 15 11 360 356 353 358 358 356 3 2 352 341 351 347 333 307 277 259 266 254 247 244 233 235 238 237 222 223 232 237 241 254 250 233 210 208 214 224
113 67 44 29 18 23 8 7 357 351 353 0 360 358 357 359 354 353 344 343 341 332 301 268 272 259 233 219 233 234 229 218 227 227 236 235 244 254 237 215 211 212 220
101 76 40 30 23 6 9 8 355 359 353 352 346 350 3 356 351 344 343 329 334 334 329 328 301 259 239 238 244 243 228 227 228 231 230 236 244 246 234 219 213 216 221
106 79 45 32 12 352 10 5 358 344 348 327 339 333 358 357 350 335 331 329 324 325 327 323 324 318 289 253 242 231 251 240 238 231 245 235 238 239 235 223 220 222 226
115 100 59 41 359 356 21 8 352 338 316 334 324 316 350 359 341 323 319 315 314 312 313 309 306 306 306 290 269 251 245 248 246 253 244 261 256 238 234 239 237 234 232
125 108 68 70 7 22 44 17 349 326 333 333 335 4 359 1 338 327 312 306 292 299 309 318 320 319 323 318 301 283 270 259 253 256 258 258 272 250 241 252 248 240 240
107 108 93 27 20 34 59 19 346 359 9 19 17 12 20 15 1 345 337 328 312 304 303 310 303 310 307 304 302 302 292 285 276 268 273 265 254 262 260 244 245 251 251
128 131 109 28 26 13 28 33 32 21 26 8 12 24 13 4 360 358 356 348 346 341 341 332 321 298 301 307 303 293 303 304 289 290 271 262 256 256 253 253 246 243 248
136 133 87 39 17 9 28 28 21 14 4 10 36 14 5 349 1 357 359 354 355 350 350 352 343 334 295 318 308 306 293 285 276 271 267 275 270 270 259 254 252 255 253
158 144 127 40 355 36 17 10 4 327 322 333 43 358 358 358 0 353 355 340 356 357 347 359 344 347 331 7 343 339 298 268 265 281 326 310 323 320 309 287 264 252 254
158 164 134 121 28 40 54 301 261 266 276 157 8 307 4 358 3 2 357 356 357 354 358 3 3 347 329 13 345 285 318 327 10 327 345 344 359 351 356 347 342 336 320
160 160 158 174 235 212 316 338 340 348 355 354 323 325 317 39 15 4 352 354 1 2 359 357 2 355 334 331 351 301 338 349 343 334 358 16 13 0 348 342 14 30 26
173 166 158 189 216 208 244 247 236 214 237 256 276 327 357 42 54 20 4 358 5 4 356 350 352 337 335 335 337 13 342 302 335 312 339 338 356 348 342 351 37 32 24
161 177 182 202 219 214 218 207 200 222 241 289 356 29 12 19 52 30 27 12 4 3 1 359 354 354 344 327 357 345 329 314 278 326 302 333 326 317 320 14 32 28 25
176 180 188 206 220 212 213 214 199 203 232 49 9 29 341 356 25 22 16 10 12 14 1 354 7 6 3 10 10 13 358 353 3 332 308 323 329 324 341 40 35 26 26